425P/Kowalski (2021)

Japanese version
Home page
Updated on March 27, 2022

---------------------------------------------------------------------

* Profile

Designation 425P/2021 O2
Recovery Date July 20, 2021
Magnitude 20.4 mag
Recoverer Pan-STARRS 1 telescope (Haleakala)

* Pictures

* Orbital Elements

Epoch 2022 Jan. 21.0 TT = JDT 2459600.5
T 2021 Sept. 20.45525 TT                                Rudenko
q   2.8901230            (2000.0)            P               Q
n   0.06188073     Peri.  200.74415     +0.63885292     -0.75616380
a   6.3304185      Node   210.08682     +0.73967020     +0.65436735
e   0.5434547      Incl.   16.42077     +0.21155362     -0.00443660
P  15.9
From 389 observations 2005 Sept. 30-2022 Jan. 31, mean residual 0".7.

* Magnitudes Graph

        m1 = 2.0 + 5 log d + 30.0 log r

---------------------------------------------------------------------

The orbital elements are published on M.P.E.C. 2022-C56.
The magnitudes graphs are made with Comet for Windows.

---------------------------------------------------------------------

Copyright(C) Seiichi Yoshida (comet@aerith.net). All rights reserved.